Fitchburg, MA

10:56 AM EDT on September 26, 2017 (GMT -0400)
Fitchburg Municipal

Weather History for KFIT - August, 2012

Change the Weather History Date:

Sunday, August 5, 2012

  Actual Average (KORH) Record (KORH)
Temperature  
Mean Temperature 80 °F -  
Max Temperature 91 °F 79 °F 96 °F (1944)
Min Temperature 68 °F 61 °F 48 °F (1929)
Cooling Degree Days 14    
Growing Degree Days 30 (Base 50)    
Moisture  
Dew Point 69 °F    
Average Humidity 83    
Maximum Humidity 96    
Minimum Humidity 44    
Precipitation  
Precipitation 0.30 in - - ()
Sea Level Pressure  
Sea Level Pressure 30.09 in    
Wind  
Wind Speed 3 mph (SSW)    
Max Wind Speed 23 mph    
Max Gust Speed 33 mph    
Visibility 8 miles    
Events Rain , Thunderstorm    
Averages and records for this station are not official NWS values.
T = Trace of Precipitation, MM = Missing Value Source: NWS Daily Summary

Daily Weather History Graph

Daily Weather History Graph

Search for Another Location

Airport or City:

Trip Planner

Search our weather history database for the weather conditions in past years. The results will help you decide how hot, cold, wet, or windy it might be!

Date:

Astronomy

Aug. 05, 2012 Rise Set
Actual Time 5:43 AM EDT 8:01 PM EDT
Civil Twilight 5:12 AM EDT 8:32 PM EDT
Nautical Twilight 4:33 AM EDT 9:11 PM EDT
Astronomical Twilight 3:50 AM EDT 9:54 PM EDT
Moon 9:31 PM EDT (8/5) 9:36 AM EDT (8/5)
Length of Visible Light 15h 20m
Length of Day
14h 17m
Waning Gibbous, 86% of the Moon is Illuminated
Aug 5
Waning Gibbous
Aug 9
Last Quarter
Aug 17
New
Aug 24
First Quarter
Aug 31
Full

Hourly Weather History & Observations

Time (EDT) Temp. Heat Index Dew Point Humidity Pressure Visibility Wind Dir Wind Speed Gust Speed Precip Events Conditions
12:52 AM 68.0 °F - 66.9 °F 96% 30.23 in 7.0 mi Calm Calm - N/A   Clear
1:52 AM 68.0 °F - 66.0 °F 93% 30.23 in 5.0 mi Calm Calm - N/A   Partly Cloudy
2:12 AM 68.0 °F - 66.2 °F 94% 30.23 in 7.0 mi Calm Calm - N/A   Mostly Cloudy
2:52 AM 69.1 °F - 66.0 °F 90% 30.22 in 10.0 mi Calm Calm - N/A   Scattered Clouds
3:20 AM 68.0 °F - 66.2 °F 94% 30.21 in 8.0 mi Calm Calm - N/A   Mostly Cloudy
3:29 AM 68.0 °F - 66.2 °F 94% 30.21 in 8.0 mi Calm Calm - N/A   Partly Cloudy
3:50 AM 68.0 °F - 66.2 °F 94% 30.21 in 7.0 mi Calm Calm - N/A   Mostly Cloudy
3:52 AM 69.1 °F - 66.9 °F 93% 30.21 in 7.0 mi Calm Calm - N/A   Mostly Cloudy
4:26 AM 68.0 °F - 66.2 °F 94% 30.19 in 8.0 mi Calm Calm - N/A   Scattered Clouds
4:33 AM 69.8 °F - 66.2 °F 88% 30.19 in 8.0 mi Calm Calm - N/A   Mostly Cloudy
4:52 AM 69.1 °F - 66.9 °F 93% 30.18 in 9.0 mi Calm Calm - N/A   Mostly Cloudy
5:01 AM 69.8 °F - 66.2 °F 88% 30.19 in 10.0 mi Calm Calm - N/A   Partly Cloudy
5:33 AM 69.8 °F - 66.2 °F 88% 30.19 in 8.0 mi Calm Calm - N/A   Mostly Cloudy
5:48 AM 68.0 °F - 66.2 °F 94% 30.19 in 8.0 mi Calm Calm - N/A   Scattered Clouds
5:52 AM 68.0 °F - 66.0 °F 93% 30.19 in 8.0 mi Calm Calm - N/A   Mostly Cloudy
5:59 AM 68.0 °F - 66.2 °F 94% 30.19 in 8.0 mi Calm Calm - N/A   Mostly Cloudy
6:52 AM 71.1 °F - 68.0 °F 90% 30.18 in 6.0 mi Calm Calm - N/A   Clear
7:38 AM 75.2 °F - 71.6 °F 89% 30.18 in 9.0 mi Calm Calm - 0.01 in   Mostly Cloudy
7:52 AM 75.0 °F - 71.1 °F 87% 30.18 in 10.0 mi Calm Calm - 0.01 in   Overcast
8:23 AM 78.8 °F - 71.6 °F 78% 30.17 in 10.0 mi South 6.9 mph - N/A   Scattered Clouds
8:52 AM 80.1 °F 83.2 °F 70.0 °F 71% 30.16 in 10.0 mi SSW 5.8 mph - N/A   Mostly Cloudy
9:43 AM 82.4 °F 87.2 °F 71.6 °F 70% 30.14 in 10.0 mi Variable 6.9 mph - N/A   Overcast
9:52 AM 82.0 °F 86.3 °F 71.1 °F 69% 30.14 in 10.0 mi Variable 5.8 mph - N/A   Overcast
10:52 AM 84.9 °F 90.1 °F 71.1 °F 63% 30.12 in 10.0 mi SSW 8.1 mph - N/A   Mostly Cloudy
12:52 PM 91.0 °F 95.6 °F 69.1 °F 48% 30.06 in 10.0 mi South 13.8 mph 20.7 mph N/A   Partly Cloudy
1:52 PM 91.9 °F 95.4 °F 66.9 °F 44% 30.04 in 10.0 mi SSW 15.0 mph 24.2 mph N/A   Partly Cloudy
2:52 PM 91.9 °F 95.9 °F 68.0 °F 45% 30.01 in 10.0 mi South 15.0 mph 25.3 mph N/A   Partly Cloudy
3:52 PM 89.1 °F 92.9 °F 68.0 °F 50% 29.99 in 10.0 mi South 15.0 mph 23.0 mph N/A   Mostly Cloudy
4:00 PM 87.8 °F 91.4 °F 68.0 °F 52% 30.02 in 10.0 mi WSW 23.0 mph 33.4 mph N/A Thunderstorm Thunderstorm
4:07 PM 78.8 °F - 69.8 °F 74% 30.04 in 1.8 mi SW 15.0 mph 33.4 mph 0.11 in Rain , Thunderstorm Heavy Thunderstorms and Rain
4:10 PM 75.2 °F - 71.6 °F 89% 30.03 in 0.8 mi SW 10.4 mph 25.3 mph 0.19 in Rain , Thunderstorm Heavy Thunderstorms and Rain
4:17 PM 75.2 °F - 69.8 °F 83% 30.01 in 1.2 mi WSW 4.6 mph 16.1 mph 0.19 in Rain , Thunderstorm Light Thunderstorms and Rain
4:19 PM 75.2 °F - 71.6 °F 89% 30.01 in 4.0 mi Variable 4.6 mph 16.1 mph 0.20 in Rain , Thunderstorm Light Thunderstorms and Rain
4:52 PM 77.0 °F - 73.0 °F 88% 30.01 in 6.0 mi SSE 8.1 mph - 0.22 in Rain , Thunderstorm Light Thunderstorms and Rain
5:10 PM 77.0 °F - 73.4 °F 89% 30.00 in 10.0 mi South 8.1 mph - 0.00 in Rain Light Rain
5:52 PM 75.9 °F - 73.0 °F 91% 29.99 in 8.0 mi SE 5.8 mph - 0.02 in Rain Light Rain
6:52 PM 78.1 °F - 73.9 °F 87% 29.97 in 10.0 mi South 9.2 mph - 0.01 in   Partly Cloudy
7:52 PM 75.9 °F - 71.1 °F 85% 29.95 in 10.0 mi SSE 6.9 mph - N/A   Clear
8:52 PM 75.0 °F - 71.1 °F 87% 29.94 in 10.0 mi SSE 9.2 mph - N/A   Partly Cloudy
9:28 PM 75.2 °F - 71.6 °F 89% 29.94 in 10.0 mi Variable 6.9 mph - N/A   Mostly Cloudy
9:37 PM 75.2 °F - 71.6 °F 89% 29.94 in 10.0 mi SSE 5.8 mph - N/A   Scattered Clouds
9:52 PM 75.9 °F - 73.0 °F 91% 29.94 in 10.0 mi South 4.6 mph - N/A   Partly Cloudy
10:46 PM 78.8 °F - 73.4 °F 83% 29.96 in 10.0 mi Variable 6.9 mph - 0.03 in Thunderstorm Mostly Cloudy
10:47 PM 78.1 °F - 73.0 °F 84% 29.96 in 10.0 mi SW 6.9 mph - 0.03 in Thunderstorm Mostly Cloudy
11:00 PM 78.8 °F - 73.4 °F 83% 29.96 in 10.0 mi SW 8.1 mph - 0.00 in Rain , Thunderstorm Light Rain
11:08 PM 77.0 °F - 73.4 °F 89% 29.95 in 9.0 mi SW 6.9 mph - 0.00 in Rain Light Rain
11:52 PM 77.0 °F - 72.0 °F 84% 29.94 in 10.0 mi SW 5.8 mph - 0.01 in   Clear